Bangkok (Suvarnabhumi), Thailand

3:03 AM +07 on February 20, 2018 (GMT +0700)
Bangkok (Suvarnabhumi)

Weather History for VTBS - August, 2013

Change the Weather History Date:

Tuesday, August 20, 2013

  Actual Average (VTBU) Record (VTBU)
Temperature  
Mean Temperature 86 °F -  
Max Temperature 91 °F 89 °F 93 °F (2001)
Min Temperature 81 °F 76 °F 48 °F (2007)
Cooling Degree Days 21    
Growing Degree Days 36 (Base 50)    
Moisture  
Dew Point 71 °F    
Average Humidity 61    
Maximum Humidity 74    
Minimum Humidity 47    
Precipitation  
Precipitation 0.00 in 0.32 in - ()
Sea Level Pressure  
Sea Level Pressure 29.72 in    
Wind  
Wind Speed 8 mph ()    
Max Wind Speed 16 mph    
Max Gust Speed 25 mph    
Visibility 6.2 miles    
Events Rain    
Averages and records for this station are not official NWS values.
T = Trace of Precipitation, MM = Missing Value Source: Averaged Metar Reports

Daily Weather History Graph

Daily Weather History Graph

Search for Another Location

Airport or City:

Trip Planner

Search our weather history database for the weather conditions in past years. The results will help you decide how hot, cold, wet, or windy it might be!

Date:

Astronomy

Aug. 20, 2013 Rise Set
Actual Time 6:04 AM +07 6:34 PM +07
Civil Twilight 5:42 AM +07 6:56 PM +07
Nautical Twilight 5:16 AM +07 7:22 PM +07
Astronomical Twilight 4:50 AM +07 7:47 PM +07
Moon 5:50 PM +07 (8/20) 4:57 AM +07 (8/20)
Length of Visible Light 13h 14m
Length of Day
12h 30m
Waxing Gibbous, 99% of the Moon is Illuminated
Aug 20
Waxing Gibbous
Aug 21
Full
Aug 28
Last Quarter
Sep 5
New
Sep 13
First Quarter

Hourly Weather History & Observations

Time (+07) Temp. Heat Index Dew Point Humidity Pressure Visibility Wind Dir Wind Speed Gust Speed Precip Events Conditions
12:00 AM 84.2 °F 87.3 °F 68.0 °F 58% 29.77 in 6.2 mi WSW 6.9 mph - N/A   Mostly Cloudy
12:30 AM 82.4 °F 86.3 °F 69.8 °F 66% 29.77 in 6.2 mi WSW 4.6 mph - N/A   Mostly Cloudy
1:00 AM 85 °F - 71 °F 54% 29.75 in 7 mi WSW 5.8 mph - -   Partly Cloudy
1:00 AM 82.4 °F 86.3 °F 69.8 °F 66% 29.77 in 6.2 mi SW 5.8 mph - N/A   Mostly Cloudy
1:30 AM 82.4 °F 86.3 °F 69.8 °F 66% 29.74 in 6.2 mi WSW 8.1 mph - N/A   Mostly Cloudy
2:00 AM 82.4 °F 86.3 °F 69.8 °F 66% 29.74 in 6.2 mi SW 9.2 mph - N/A   Mostly Cloudy
2:30 AM 82.4 °F 86.3 °F 69.8 °F 66% 29.74 in 6.2 mi SW 10.4 mph 21.9 mph N/A   Mostly Cloudy
3:00 AM 82.4 °F 86.3 °F 69.8 °F 66% 29.71 in 6.2 mi SW 8.1 mph - N/A   Mostly Cloudy
3:30 AM 82.4 °F 85.4 °F 68.0 °F 62% 29.71 in 6.2 mi SW 9.2 mph - N/A   Mostly Cloudy
4:00 AM 82.4 °F 85.4 °F 68.0 °F 62% 29.71 in 6.2 mi SW 8.1 mph - N/A   Mostly Cloudy
4:30 AM 82.4 °F 85.4 °F 68.0 °F 62% 29.71 in 6.2 mi SW 6.9 mph - N/A   Mostly Cloudy
5:00 AM 82.4 °F 85.4 °F 68.0 °F 62% 29.71 in 6.2 mi SW 5.8 mph - N/A   Mostly Cloudy
5:30 AM 82.4 °F 85.4 °F 68.0 °F 62% 29.71 in 6.2 mi WSW 6.9 mph - N/A   Mostly Cloudy
6:00 AM 82.4 °F 85.4 °F 68.0 °F 62% 29.71 in 6.2 mi SW 9.2 mph - N/A   Mostly Cloudy
6:30 AM 82.4 °F 85.4 °F 68.0 °F 62% 29.71 in 6.2 mi SW 8.1 mph - N/A   Mostly Cloudy
7:00 AM 83 °F - 72 °F 63% 29.71 in 7 mi Calm Calm - -   Mostly Cloudy
7:00 AM 82.4 °F 86.3 °F 69.8 °F 66% 29.71 in 6.2 mi SW 5.8 mph - N/A   Mostly Cloudy
7:30 AM 84.2 °F 88.4 °F 69.8 °F 62% 29.74 in 6.2 mi SSW 6.9 mph - N/A   Mostly Cloudy
8:00 AM 84.2 °F 88.4 °F 69.8 °F 62% 29.74 in 6.2 mi SSW 8.1 mph - N/A   Mostly Cloudy
8:30 AM 84.2 °F 89.6 °F 71.6 °F 66% 29.74 in 6.2 mi SSW 9.2 mph - N/A   Mostly Cloudy
9:00 AM 86.0 °F 90.4 °F 69.8 °F 58% 29.77 in 6.2 mi SW 10.4 mph - N/A   Mostly Cloudy
9:30 AM 87.8 °F 92.6 °F 69.8 °F 55% 29.77 in 6.2 mi SW 11.5 mph - N/A   Mostly Cloudy
10:00 AM 87.8 °F 92.6 °F 69.8 °F 55% 29.77 in 6.2 mi SSW 11.5 mph - N/A   Mostly Cloudy
10:30 AM 87.8 °F 92.6 °F 69.8 °F 55% 29.77 in 6.2 mi SW 10.4 mph - N/A   Mostly Cloudy
11:00 AM 87.8 °F 92.6 °F 69.8 °F 55% 29.77 in 6.2 mi SW 12.7 mph - N/A   Mostly Cloudy
11:30 AM 89.6 °F 94.7 °F 69.8 °F 52% 29.74 in 6.2 mi SSW 13.8 mph - N/A   Mostly Cloudy
12:00 PM 89.6 °F 94.7 °F 69.8 °F 52% 29.74 in 6.2 mi SW 13.8 mph - N/A   Mostly Cloudy
12:30 PM 87.8 °F 92.6 °F 69.8 °F 55% 29.74 in 6.2 mi SW 12.7 mph - N/A   Mostly Cloudy
1:00 PM 90 °F - 72 °F 47% 29.73 in 7 mi SSW 6.9 mph - -   Overcast
1:00 PM 87.8 °F 93.8 °F 71.6 °F 58% 29.74 in 6.2 mi SSW 13.8 mph - N/A   Mostly Cloudy
1:30 PM 86.0 °F 91.8 °F 71.6 °F 62% 29.71 in 6.2 mi SSW 16.1 mph - N/A   Mostly Cloudy
2:00 PM 87.8 °F 93.8 °F 71.6 °F 58% 29.71 in 6.2 mi SSW 13.8 mph - N/A   Mostly Cloudy
2:30 PM 87.8 °F 93.8 °F 71.6 °F 58% 29.68 in 6.2 mi SW 13.8 mph 25.3 mph N/A   Mostly Cloudy
3:00 PM 89.6 °F 94.7 °F 69.8 °F 52% 29.68 in 6.2 mi SW 12.7 mph 25.3 mph N/A   Mostly Cloudy
3:30 PM 87.8 °F 93.8 °F 71.6 °F 58% 29.68 in 6.2 mi South 15.0 mph - N/A   Mostly Cloudy
4:00 PM 87.8 °F 93.8 °F 71.6 °F 58% 29.65 in 6.2 mi SSW 12.7 mph - N/A   Mostly Cloudy
4:30 PM 86.0 °F 91.8 °F 71.6 °F 62% 29.65 in 6.2 mi South 11.5 mph - N/A   Mostly Cloudy
5:00 PM 86.0 °F 91.8 °F 71.6 °F 62% 29.65 in 6.2 mi SSW 12.7 mph - N/A   Mostly Cloudy
5:30 PM 84.2 °F 90.9 °F 73.4 °F 70% 29.68 in 6.2 mi South 11.5 mph - N/A Rain Light Rain
6:00 PM 84.2 °F 90.9 °F 73.4 °F 70% 29.68 in 6.2 mi South 10.4 mph - N/A   Mostly Cloudy
6:30 PM 84.2 °F 90.9 °F 73.4 °F 70% 29.68 in 6.2 mi South 9.2 mph - N/A Rain Light Rain
7:00 PM 87 °F - 74 °F 57% 29.68 in 6 mi Calm Calm - -   Overcast
7:00 PM 84.2 °F 92.3 °F 75.2 °F 74% 29.68 in 6.2 mi South 9.2 mph - N/A   Mostly Cloudy
7:30 PM 84.2 °F 92.3 °F 75.2 °F 74% 29.68 in 6.2 mi South 9.2 mph - N/A   Mostly Cloudy
8:00 PM 84.2 °F 92.3 °F 75.2 °F 74% 29.71 in 6.2 mi South 6.9 mph - N/A   Mostly Cloudy
8:30 PM 84.2 °F 90.9 °F 73.4 °F 70% 29.71 in 6.2 mi South 8.1 mph - N/A   Mostly Cloudy
9:00 PM 86.0 °F 93.4 °F 73.4 °F 66% 29.71 in 6.2 mi SW 9.2 mph - N/A   Mostly Cloudy
9:30 PM 86.0 °F 90.4 °F 69.8 °F 58% 29.74 in 6.2 mi WSW 10.4 mph - N/A   Mostly Cloudy
10:00 PM 87.8 °F 91.4 °F 68.0 °F 52% 29.77 in 6.2 mi WSW 8.1 mph - N/A   Mostly Cloudy
10:30 PM 86.0 °F 89.4 °F 68.0 °F 55% 29.77 in 6.2 mi WSW 9.2 mph - N/A   Mostly Cloudy
11:00 PM 86.0 °F 89.4 °F 68.0 °F 55% 29.77 in 6.2 mi WSW 10.4 mph - N/A   Mostly Cloudy
11:30 PM 84.2 °F 87.3 °F 68.0 °F 58% 29.77 in 6.2 mi WSW 6.9 mph - N/A   Mostly Cloudy